Location: Johnson City
(36.3130°N, 82.3540°W)
Time: 00:06:06
(UTC-04:00)

Envisat - Pass Details

Date: 24 February 2019
Orbit: 764 x 766 km, 98.1° (Epoch: 20 October)

Event Time Altitude Azimuth Distance (km) Brightness Sun altitude
Rises 19:39:26 0° 181° (S) 3,214 6.2 -16.9°
Reaches altitude 10° 19:41:49 10° 187° (S) 2,291 5.5 -17.4°
Maximum altitude 19:46:40 47° 261° (W) 1,006 4.0 -18.3°
Drops below altitude 10° 19:51:33 10° 335° (NNW) 2,305 5.8 -19.3°
Sets 19:53:57 0° 341° (NNW) 3,235 6.5 -19.8°
